| time (UTC) | temp C | wind direction | speed KPH | gust KPH | rain 1hr cm | rain 24hr cm | rain mn cm | humidity % | barometer mb |
| 20260507024100 | 27 | 261 | 4.8 | 20.9 | 0.00 | 0.00 | 0.00 | 82 | 998.1 |
| 20260507023600 | 27 | 267 | 11.3 | 20.9 | 0.00 | 0.00 | 0.00 | 81 | 998.1 |
| 20260507023100 | 27 | 251 | 8.0 | 22.5 | 0.00 | 0.00 | 0.00 | 82 | 998.1 |
| 20260507022600 | 27 | 302 | 11.3 | 22.5 | 0.00 | 0.00 | 0.00 | 81 | 998.1 |
| 20260507022100 | 27 | 255 | 9.7 | 20.9 | 0.00 | 0.00 | 0.00 | 81 | 998.1 |
| 20260507022001 | 27 | 279 | 11.3 | 20.9 | 0.00 | 0.00 | 0.00 | 81 | 998.2 |
| 20260507021600 | 27 | 285 | 12.9 | 20.9 | 0.00 | 0.00 | 0.00 | 81 | 998.2 |
| 20260507021100 | 27 | 283 | 9.7 | 20.9 | 0.00 | 0.00 | 0.00 | 81 | 998.1 |
| 20260507020603 | 27 | 274 | 9.7 | 19.3 | 0.00 | 0.00 | 0.00 | 81 | 998.0 |
| 20260507020001 | 27 | 201 | 9.7 | 17.7 | 0.00 | 0.00 | 0.00 | 81 | 998.0 |
| 20260507015503 | 27 | 298 | 11.3 | 17.7 | 0.00 | 0.00 | 0.00 | 81 | 998.0 |
| 20260507015100 | 28 | 279 | 9.7 | 20.9 | 0.00 | 0.00 | 0.00 | 81 | 997.9 |
| 20260507015002 | 28 | 263 | 9.7 | 20.9 | 0.00 | 0.00 | 0.00 | 81 | 997.9 |
| 20260507014602 | 28 | 281 | 9.7 | 20.9 | 0.00 | 0.00 | 0.00 | 81 | 998.0 |
| 20260507014100 | 28 | 277 | 6.4 | 16.1 | 0.00 | 0.00 | 0.00 | 81 | 997.9 |
| 20260507013600 | 28 | 290 | 8.0 | 19.3 | 0.00 | 0.00 | 0.00 | 81 | 998.0 |
| 20260507013102 | 28 | 248 | 9.7 | 19.3 | 0.00 | 0.00 | 0.00 | 81 | 998.0 |
| 20260507012501 | 28 | 238 | 6.4 | 17.7 | 0.00 | 0.00 | 0.00 | 81 | 997.9 |
| 20260507012101 | 28 | 267 | 8.0 | 17.7 | 0.00 | 0.00 | 0.00 | 81 | 998.0 |
| 20260507011601 | 28 | 248 | 3.2 | 17.7 | 0.00 | 0.00 | 0.00 | 81 | 998.0 |
| 20260507011501 | 28 | 245 | 6.4 | 17.7 | 0.00 | 0.00 | 0.00 | 81 | 998.0 |
| 20260507011102 | 28 | 248 | 8.0 | 17.7 | 0.00 | 0.00 | 0.00 | 81 | 998.0 |
| 20260507010600 | 28 | 269 | 9.7 | 20.9 | 0.00 | 0.00 | 0.00 | 81 | 997.9 |
| 20260507010116 | 28 | 333 | 8.0 | 20.9 | 0.00 | 0.00 | 0.00 | 81 | 997.6 |
| 20260507010004 | 28 | 267 | 6.4 | 20.9 | 0.00 | 0.00 | 0.00 | 81 | 997.6 |
| 20260507005501 | 28 | 296 | 9.7 | 20.9 | 0.00 | 0.00 | 0.00 | 81 | 997.6 |
| 20260507005004 | 28 | 265 | 8.0 | 17.7 | 0.00 | 0.00 | 0.00 | 80 | 997.5 |
| 20260507004501 | 28 | 298 | 6.4 | 17.7 | 0.00 | 0.00 | 0.00 | 81 | 997.3 |
| 20260507004001 | 28 | 271 | 3.2 | 17.7 | 0.00 | 0.00 | 0.00 | 81 | 997.2 |
| 20260507003501 | 28 | 208 | 4.8 | 17.7 | 0.00 | 0.00 | 0.00 | 81 | 997.2 |
| 20260507003000 | 28 | 261 | 8.0 | 19.3 | 0.00 | 0.00 | 0.00 | 80 | 997.2 |
| 20260507002502 | 28 | 234 | 6.4 | 27.4 | 0.00 | 0.00 | 0.00 | 80 | 997.1 |
| 20260507002002 | 28 | 263 | 8.0 | 27.4 | 0.00 | 0.00 | 0.00 | 80 | 997.1 |
| 20260507001501 | 28 | 261 | 6.4 | 20.9 | 0.00 | 0.00 | 0.00 | 80 | 997.1 |
| 20260507001001 | 28 | 192 | 9.7 | 20.9 | 0.00 | 0.00 | 0.00 | 80 | 997.0 |
| 20260507000502 | 28 | 228 | 4.8 | 20.9 | 0.00 | 0.00 | 0.00 | 80 | 996.8 |
| 20260507000002 | 28 | 178 | 6.4 | 29.0 | 0.00 | 0.00 | 0.00 | 80 | 996.9 |
| 20260506235601 | 28 | 222 | 8.0 | 29.0 | 0.00 | 0.00 | 0.00 | 80 | 996.8 |
| 20260506235103 | 28 | 216 | 8.0 | 25.7 | 0.00 | 0.00 | 0.00 | 80 | 996.6 |
| 20260506234601 | 28 | 225 | 11.3 | 25.7 | 0.00 | 0.00 | 0.00 | 80 | 996.4 |
| 20260506234100 | 28 | 199 | 9.7 | 20.9 | 0.00 | 0.00 | 0.00 | 80 | 996.3 |
| 20260506233601 | 28 | 306 | 9.7 | 25.7 | 0.00 | 0.00 | 0.00 | 80 | 996.4 |
| 20260506233503 | 28 | 291 | 12.9 | 25.7 | 0.00 | 0.00 | 0.00 | 80 | 996.5 |
| 20260506233100 | 28 | 203 | 11.3 | 25.7 | 0.00 | 0.00 | 0.00 | 79 | 996.5 |
| 20260506232603 | 28 | 265 | 12.9 | 25.7 | 0.00 | 0.00 | 0.00 | 79 | 996.5 |
| 20260506232100 | 28 | 284 | 12.9 | 25.7 | 0.00 | 0.00 | 0.00 | 78 | 996.5 |
| 20260506232000 | 29 | 238 | 14.5 | 25.7 | 0.00 | 0.00 | 0.00 | 78 | 996.5 |
| 20260506231612 | 29 | 233 | 6.4 | 25.7 | 0.00 | 0.00 | 0.00 | 77 | 996.4 |
| 20260506231501 | 29 | 248 | 4.8 | 25.7 | 0.00 | 0.00 | 0.00 | 77 | 996.5 |
| 20260506231059 | 29 | 227 | 8.0 | 20.9 | 0.00 | 0.00 | 0.00 | 77 | 996.4 |
| 20260506230600 | 29 | 289 | 11.3 | 24.1 | 0.00 | 0.00 | 0.00 | 76 | 996.3 |
| 20260506230124 | 29 | 263 | 6.4 | 20.9 | 0.00 | 0.00 | 0.00 | 76 | 996.3 |
| 20260506225600 | 29 | 263 | 9.7 | 22.5 | 0.00 | 0.00 | 0.00 | 76 | 996.4 |
| 20260506225001 | 29 | 229 | 6.4 | 24.1 | 0.00 | 0.00 | 0.00 | 76 | 996.4 |
| 20260506224603 | 29 | 231 | 9.7 | 37.0 | 0.00 | 0.00 | 0.00 | 77 | 996.4 |
| 20260506224101 | 29 | 250 | 14.5 | 37.0 | 0.00 | 0.00 | 0.00 | 77 | 996.3 |
| 20260506223600 | 29 | 286 | 11.3 | 24.1 | 0.00 | 0.00 | 0.00 | 77 | 996.3 |
| 20260506223101 | 30 | 292 | 11.3 | 22.5 | 0.00 | 0.00 | 0.00 | 76 | 996.3 |
| 20260506222600 | 30 | 298 | 11.3 | 24.1 | 0.00 | 0.00 | 0.00 | 76 | 996.4 |
| 20260506222100 | 30 | 264 | 14.5 | 29.0 | 0.00 | 0.00 | 0.00 | 76 | 996.3 |
| 20260506221631 | 30 | 215 | 11.3 | 29.0 | 0.00 | 0.00 | 0.00 | 75 | 996.3 |
| 20260506221000 | 30 | 254 | 8.0 | 24.1 | 0.00 | 0.00 | 0.00 | 75 | 996.3 |
| 20260506220600 | 30 | 275 | 12.9 | 24.1 | 0.00 | 0.00 | 0.00 | 74 | 996.2 |
| 20260506220132 | 30 | 285 | 11.3 | 32.2 | 0.00 | 0.00 | 0.00 | 74 | 996.2 |
| 20260506220004 | 30 | 307 | 9.7 | 32.2 | 0.00 | 0.00 | 0.00 | 75 | 996.2 |
| 20260506215600 | 30 | 269 | 16.1 | 32.2 | 0.00 | 0.00 | 0.00 | 75 | 996.2 |
| 20260506215100 | 30 | 232 | 16.1 | 33.8 | 0.00 | 0.00 | 0.00 | 75 | 996.3 |
| 20260506214601 | 30 | 235 | 12.9 | 33.8 | 0.00 | 0.00 | 0.00 | 74 | 996.3 |
| 20260506214501 | 30 | 295 | 12.9 | 33.8 | 0.00 | 0.00 | 0.00 | 74 | 996.2 |
| 20260506214101 | 30 | 257 | 12.9 | 27.4 | 0.00 | 0.00 | 0.00 | 72 | 996.3 |
| 20260506213600 | 30 | 251 | 12.9 | 25.7 | 0.00 | 0.00 | 0.00 | 72 | 996.3 |
| 20260506213001 | 30 | 212 | 12.9 | 30.6 | 0.00 | 0.00 | 0.00 | 72 | 996.2 |
| 20260506212601 | 30 | 221 | 14.5 | 29.0 | 0.00 | 0.00 | 0.00 | 72 | 996.2 |
| 20260506212502 | 30 | 270 | 14.5 | 29.0 | 0.00 | 0.00 | 0.00 | 72 | 996.2 |
| 20260506212001 | 30 | 217 | 14.5 | 29.0 | 0.00 | 0.00 | 0.00 | 71 | 996.2 |
| 20260506211601 | 30 | 209 | 16.1 | 29.0 | 0.00 | 0.00 | 0.00 | 74 | 996.3 |
| 20260506211100 | 30 | 252 | 17.7 | 25.7 | 0.00 | 0.00 | 0.00 | 74 | 996.2 |
| 20260506211001 | 30 | 208 | 16.1 | 27.4 | 0.00 | 0.00 | 0.00 | 74 | 996.4 |
| 20260506210601 | 30 | 279 | 16.1 | 40.2 | 0.00 | 0.00 | 0.00 | 75 | 996.5 |
| 20260506210106 | 30 | 205 | 19.3 | 40.2 | 0.00 | 0.00 | 0.00 | 76 | 996.3 |
| 20260506210002 | 30 | 209 | 22.5 | 40.2 | 0.00 | 0.00 | 0.00 | 76 | 996.5 |
| 20260506205600 | 30 | 252 | 16.1 | 35.4 | 0.00 | 0.00 | 0.00 | 76 | 996.5 |
| 20260506205102 | 30 | 246 | 20.9 | 35.4 | 0.00 | 0.00 | 0.00 | 76 | 996.4 |
| 20260506204608 | 30 | 270 | 14.5 | 35.4 | 0.00 | 0.00 | 0.00 | 76 | 996.5 |
| 20260506204100 | 30 | 267 | 17.7 | 37.0 | 0.00 | 0.00 | 0.00 | 76 | 996.3 |
| 20260506203501 | 30 | 292 | 19.3 | 33.8 | 0.00 | 0.00 | 0.00 | 76 | 996.6 |
| 20260506203100 | 30 | 228 | 14.5 | 33.8 | 0.00 | 0.00 | 0.00 | 76 | 996.5 |
| 20260506202600 | 30 | 229 | 19.3 | 33.8 | 0.00 | 0.00 | 0.00 | 76 | 996.6 |
| 20260506202001 | 30 | 267 | 17.7 | 30.6 | 0.00 | 0.00 | 0.00 | 74 | 996.9 |
| 20260506201600 | 30 | 240 | 19.3 | 30.6 | 0.00 | 0.00 | 0.00 | 73 | 996.8 |
| 20260506201059 | 30 | 235 | 19.3 | 30.6 | 0.00 | 0.00 | 0.00 | 73 | 996.8 |
| 20260506200603 | 30 | 294 | 17.7 | 29.0 | 0.00 | 0.00 | 0.00 | 71 | 996.9 |
| 20260506200100 | 30 | 234 | 12.9 | 30.6 | 0.00 | 0.00 | 0.00 | 72 | 996.9 |
| 20260506200003 | 30 | 217 | 16.1 | 30.6 | 0.00 | 0.00 | 0.00 | 73 | 996.9 |
| 20260506195600 | 30 | 218 | 16.1 | 30.6 | 0.00 | 0.00 | 0.00 | 72 | 997.1 |
| 20260506195101 | 30 | 262 | 16.1 | 32.2 | 0.00 | 0.00 | 0.00 | 73 | 997.2 |
| 20260506194501 | 30 | 241 | 17.7 | 30.6 | 0.00 | 0.00 | 0.00 | 71 | 997.1 |
| 20260506194100 | 31 | 248 | 12.9 | 29.0 | 0.00 | 0.00 | 0.00 | 70 | 997.2 |
| 20260506194000 | 31 | 206 | 12.9 | 29.0 | 0.00 | 0.00 | 0.00 | 70 | 997.2 |
| 20260506193501 | 31 | 272 | 12.9 | 25.7 | 0.00 | 0.00 | 0.00 | 69 | 997.3 |
| 20260506193116 | 31 | 246 | 11.3 | 24.1 | 0.00 | 0.00 | 0.00 | 69 | 997.4 |
| 20260506192601 | 31 | 300 | 12.9 | 27.4 | 0.00 | 0.00 | 0.00 | 68 | 997.4 |
| 20260506192100 | 31 | 238 | 16.1 | 30.6 | 0.00 | 0.00 | 0.00 | 68 | 997.4 |
| 20260506192002 | 31 | 245 | 16.1 | 30.6 | 0.00 | 0.00 | 0.00 | 68 | 997.3 |
| 20260506191628 | 31 | 289 | 16.1 | 27.4 | 0.00 | 0.00 | 0.00 | 68 | 997.6 |
| 20260506191100 | 31 | 250 | 12.9 | 33.8 | 0.00 | 0.00 | 0.00 | 69 | 997.4 |
| 20260506190600 | 31 | 267 | 12.9 | 33.8 | 0.00 | 0.00 | 0.00 | 67 | 997.5 |
| 20260506190002 | 31 | 327 | 9.7 | 22.5 | 0.00 | 0.00 | 0.00 | 68 | 997.7 |
| 20260506185501 | 31 | 291 | 9.7 | 22.5 | 0.00 | 0.00 | 0.00 | 69 | 997.8 |
| 20260506185100 | 31 | 298 | 11.3 | 20.9 | 0.00 | 0.00 | 0.00 | 67 | 997.9 |
| 20260506184634 | 31 | 230 | 11.3 | 24.1 | 0.00 | 0.00 | 0.00 | 68 | 997.8 |
| 20260506184102 | 31 | 240 | 9.7 | 24.1 | 0.00 | 0.00 | 0.00 | 70 | 998.0 |
| 20260506183604 | 31 | 283 | 11.3 | 24.1 | 0.00 | 0.00 | 0.00 | 70 | 998.1 |
| 20260506183114 | 31 | 297 | 12.9 | 25.7 | 0.00 | 0.00 | 0.00 | 70 | 998.2 |
| 20260506182501 | 31 | 237 | 11.3 | 25.7 | 0.00 | 0.00 | 0.00 | 70 | 998.3 |
| 20260506182100 | 31 | 221 | 11.3 | 20.9 | 0.00 | 0.00 | 0.00 | 70 | 998.2 |
| 20260506182002 | 31 | 236 | 8.0 | 20.9 | 0.00 | 0.00 | 0.00 | 69 | 998.3 |
| 20260506181501 | 31 | 278 | 8.0 | 16.1 | 0.00 | 0.00 | 0.00 | 70 | 998.4 |
| 20260506181101 | 31 | 263 | 8.0 | 19.3 | 0.00 | 0.00 | 0.00 | 71 | 998.4 |
| 20260506180502 | 31 | 285 | 11.3 | 20.9 | 0.00 | 0.00 | 0.00 | 70 | 998.6 |
| 20260506180100 | 31 | 288 | 8.0 | 20.9 | 0.00 | 0.00 | 0.00 | 72 | 998.5 |
| 20260506175558 | 31 | 249 | 14.5 | 20.9 | 0.00 | 0.00 | 0.00 | 71 | 998.5 |
| 20260506175059 | 31 | 267 | 9.7 | 17.7 | 0.00 | 0.00 | 0.00 | 70 | 998.8 |
| 20260506174559 | 31 | 265 | 8.0 | 16.1 | 0.00 | 0.00 | 0.00 | 70 | 998.8 |
| 20260506174101 | 31 | 277 | 4.8 | 14.5 | 0.00 | 0.00 | 0.00 | 68 | 998.9 |
| 20260506173601 | 31 | 301 | 4.8 | 16.1 | 0.00 | 0.00 | 0.00 | 68 | 999.0 |
| 20260506173100 | 31 | 318 | 0.0 | 11.3 | 0.00 | 0.00 | 0.00 | 66 | 999.1 |
| 20260506172600 | 31 | 159 | 1.6 | 14.5 | 0.00 | 0.00 | 0.00 | 66 | 999.2 |
| 20260506172059 | 31 | 253 | 4.8 | 16.1 | 0.00 | 0.00 | 0.00 | 66 | 999.1 |
| 20260506171608 | 32 | 229 | 6.4 | 17.7 | 0.00 | 0.00 | 0.00 | 65 | 999.2 |
| 20260506171100 | 32 | 136 | 4.8 | 17.7 | 0.00 | 0.00 | 0.00 | 65 | 999.2 |
| 20260506170559 | 32 | 123 | 4.8 | 12.9 | 0.00 | 0.00 | 0.00 | 62 | 999.3 |
| 20260506170001 | 31 | 107 | 1.6 | 12.9 | 0.00 | 0.00 | 0.00 | 63 | 999.2 |
| 20260506165501 | 31 | 153 | 4.8 | 12.9 | 0.00 | 0.00 | 0.00 | 65 | 999.2 |
| 20260506165100 | 31 | 148 | 3.2 | 11.3 | 0.00 | 0.00 | 0.00 | 64 | 999.3 |
| 20260506165002 | 31 | 149 | 1.6 | 11.3 | 0.00 | 0.00 | 0.00 | 64 | 999.3 |
| 20260506164600 | 31 | 131 | 3.2 | 11.3 | 0.00 | 0.00 | 0.00 | 65 | 999.3 |
| 20260506164500 | 31 | 136 | 1.6 | 11.3 | 0.00 | 0.00 | 0.00 | 65 | 999.3 |
| 20260506164100 | 31 | 155 | 3.2 | 11.3 | 0.00 | 0.00 | 0.00 | 65 | 999.4 |
| 20260506163502 | 31 | 86 | 0.0 | 9.7 | 0.00 | 0.00 | 0.00 | 64 | 999.5 |
| 20260506163001 | 31 | 101 | 0.0 | 6.4 | 0.00 | 0.00 | 0.00 | 65 | 999.6 |
| 20260506162600 | 31 | 105 | 1.6 | 6.4 | 0.00 | 0.00 | 0.00 | 64 | 999.6 |
| 20260506162103 | 31 | 55 | 0.0 | 6.4 | 0.00 | 0.00 | 0.00 | 66 | 999.6 |
| 20260506161602 | 31 | 188 | 3.2 | 9.7 | 0.00 | 0.00 | 0.00 | 66 | 999.6 |
| 20260506161002 | 31 | 150 | 0.0 | 6.4 | 0.00 | 0.00 | 0.00 | 66 | 999.6 |
| 20260506160600 | 31 | 317 | 1.6 | 6.4 | 0.00 | 0.00 | 0.00 | 66 | 999.7 |
| 20260506160503 | 31 | 44 | 0.0 | 6.4 | 0.00 | 0.00 | 0.00 | 67 | 999.7 |
| 20260506160109 | 31 | 113 | 1.6 | 4.8 | 0.00 | 0.00 | 0.00 | 67 | 999.8 |
| 20260506160001 | 31 | 129 | 1.6 | 4.8 | 0.00 | 0.00 | 0.00 | 67 | 999.8 |
| 20260506155559 | 30 | 139 | 0.0 | 3.2 | 0.00 | 0.00 | 0.00 | 67 | 999.6 |
| 20260506155059 | 30 | 117 | 0.0 | 4.8 | 0.00 | 0.00 | 0.00 | 68 | 999.6 |
| 20260506154559 | 30 | 128 | 1.6 | 4.8 | 0.00 | 0.00 | 0.00 | 67 | 999.5 |
| 20260506154102 | 30 | 114 | 0.0 | 4.8 | 0.00 | 0.00 | 0.00 | 67 | 999.6 |
| 20260506153559 | 30 | 215 | 1.6 | 4.8 | 0.00 | 0.00 | 0.00 | 67 | 999.6 |
| 20260506153100 | 30 | 28 | 0.0 | 4.8 | 0.00 | 0.00 | 0.00 | 68 | 999.6 |
| 20260506152559 | 30 | 131 | 1.6 | 4.8 | 0.00 | 0.00 | 0.00 | 69 | 999.8 |
| 20260506152059 | 29 | 170 | 0.0 | 3.2 | 0.00 | 0.00 | 0.00 | 71 | 999.5 |
| 20260506151600 | 29 | 278 | 0.0 | 6.4 | 0.00 | 0.00 | 0.00 | 70 | 999.5 |
| 20260506151059 | 30 | 212 | 1.6 | 4.8 | 0.00 | 0.00 | 0.00 | 70 | 999.4 |
| 20260506150559 | 30 | 166 | 1.6 | 4.8 | 0.00 | 0.00 | 0.00 | 70 | 999.4 |
| 20260506150100 | 30 | 124 | 0.0 | 4.8 | 0.00 | 0.00 | 0.00 | 70 | 999.4 |
| 20260506150001 | 30 | 124 | 0.0 | 4.8 | 0.00 | 0.00 | 0.00 | 70 | 999.4 |
| 20260506145600 | 29 | 153 | 0.0 | 4.8 | 0.00 | 0.00 | 0.00 | 70 | 999.5 |
| 20260506145502 | 30 | 136 | 0.0 | 4.8 | 0.00 | 0.00 | 0.00 | 70 | 999.5 |
| 20260506145200 | 30 | 153 | 1.6 | 4.8 | 0.00 | 0.00 | 0.00 | 71 | 999.3 |
| 20260506144604 | 30 | 105 | 1.6 | 3.2 | 0.00 | 0.00 | 0.00 | 71 | 999.2 |
| 20260506144059 | 29 | 128 | 0.0 | 4.8 | 0.00 | 0.00 | 0.00 | 73 | 999.3 |
| 20260506143600 | 29 | 124 | 0.0 | 4.8 | 0.00 | 0.00 | 0.00 | 73 | 999.2 |
| 20260506143059 | 29 | 59 | 0.0 | 3.2 | 0.00 | 0.00 | 0.00 | 73 | 999.1 |
| 20260506142558 | 28 | 129 | 0.0 | 3.2 | 0.00 | 0.00 | 0.00 | 74 | 998.9 |
| 20260506142101 | 28 | 74 | 0.0 | 3.2 | 0.00 | 0.00 | 0.00 | 74 | 998.8 |
| 20260506141559 | 28 | 54 | 0.0 | 3.2 | 0.00 | 0.00 | 0.00 | 74 | 998.9 |
| 20260506141100 | 28 | 128 | 0.0 | 0.0 | 0.00 | 0.00 | 0.00 | 75 | 998.7 |
| 20260506140559 | 28 | 71 | 0.0 | 0.0 | 0.00 | 0.00 | 0.00 | 76 | 998.8 |
| 20260506140104 | 28 | 79 | 0.0 | 0.0 | 0.00 | 0.00 | 0.00 | 77 | 998.8 |
| 20260506140002 | 28 | 79 | 0.0 | 0.0 | 0.00 | 0.00 | 0.00 | 77 | 998.7 |
| 20260506135558 | 28 | 112 | 0.0 | 0.0 | 0.00 | 0.00 | 0.00 | 77 | 998.8 |
| 20260506135059 | 27 | 89 | 0.0 | 0.0 | 0.00 | 0.00 | 0.00 | 78 | 998.6 |
| 20260506134559 | 27 | 88 | 0.0 | 3.2 | 0.00 | 0.00 | 0.00 | 78 | 998.6 |
| 20260506134103 | 27 | 93 | 0.0 | 3.2 | 0.00 | 0.00 | 0.00 | 79 | 998.5 |
| 20260506133559 | 27 | 96 | 0.0 | 3.2 | 0.00 | 0.00 | 0.00 | 80 | 998.5 |
| 20260506133100 | 27 | 113 | 0.0 | 3.2 | 0.00 | 0.00 | 0.00 | 80 | 998.4 |
| 20260506132600 | 27 | 120 | 0.0 | 0.0 | 0.00 | 0.00 | 0.00 | 81 | 998.4 |
| 20260506132102 | 27 | 107 | 0.0 | 0.0 | 0.00 | 0.00 | 0.00 | 81 | 998.4 |
| 20260506131612 | 26 | 101 | 0.0 | 0.0 | 0.00 | 0.00 | 0.00 | 82 | 998.4 |
| 20260506131100 | 26 | 98 | 0.0 | 0.0 | 0.00 | 0.00 | 0.00 | 82 | 998.3 |
| 20260506130601 | 26 | 98 | 0.0 | 3.2 | 0.00 | 0.00 | 0.00 | 82 | 998.2 |
| 20260506130059 | 26 | 109 | 0.0 | 3.2 | 0.00 | 0.00 | 0.00 | 82 | 998.1 |
| 20260506130001 | 26 | 126 | 0.0 | 3.2 | 0.00 | 0.00 | 0.00 | 83 | 998.1 |
| 20260506125558 | 26 | 117 | 0.0 | 6.4 | 0.00 | 0.00 | 0.00 | 83 | 998.0 |
| 20260506125100 | 26 | 225 | 1.6 | 6.4 | 0.00 | 0.00 | 0.00 | 84 | 997.8 |
| 20260506124559 | 26 | 263 | 1.6 | 8.0 | 0.00 | 0.00 | 0.00 | 85 | 997.8 |
| 20260506124100 | 26 | 302 | 4.8 | 11.3 | 0.00 | 0.00 | 0.00 | 86 | 997.8 |
| 20260506123559 | 26 | 300 | 1.6 | 11.3 | 0.00 | 0.00 | 0.00 | 86 | 997.8 |
| 20260506123059 | 26 | 261 | 4.8 | 11.3 | 0.00 | 0.00 | 0.00 | 86 | 997.9 |
| 20260506122559 | 26 | 284 | 6.4 | 9.7 | 0.00 | 0.00 | 0.00 | 85 | 997.7 |
| 20260506122059 | 26 | 253 | 3.2 | 11.3 | 0.00 | 0.00 | 0.00 | 85 | 997.6 |
| 20260506121601 | 26 | 271 | 4.8 | 12.9 | 0.00 | 0.00 | 0.00 | 85 | 997.6 |
| 20260506121059 | 26 | 265 | 6.4 | 14.5 | 0.00 | 0.00 | 0.00 | 85 | 997.5 |
| 20260506120604 | 26 | 287 | 8.0 | 14.5 | 0.00 | 0.00 | 0.00 | 85 | 997.5 |
| 20260506120103 | 26 | 253 | 6.4 | 11.3 | 0.00 | 0.00 | 0.00 | 84 | 997.5 |
| 20260506115558 | 26 | 279 | 4.8 | 9.7 | 0.00 | 0.00 | 0.00 | 81 | 997.4 |
| 20260506115058 | 26 | 288 | 3.2 | 4.8 | 0.00 | 0.00 | 0.00 | 80 | 997.3 |
| 20260506114559 | 26 | 300 | 1.6 | 4.8 | 0.00 | 0.00 | 0.00 | 80 | 997.3 |
| 20260506114104 | 26 | 322 | 1.6 | 4.8 | 0.00 | 0.00 | 0.00 | 81 | 997.2 |
| 20260506113558 | 26 | 297 | 1.6 | 4.8 | 0.00 | 0.00 | 0.00 | 80 | 997.1 |
| 20260506113100 | 26 | 278 | 1.6 | 4.8 | 0.00 | 0.00 | 0.00 | 81 | 997.1 |
| 20260506112558 | 26 | 304 | 1.6 | 4.8 | 0.00 | 0.00 | 0.00 | 81 | 997.1 |
| 20260506112059 | 26 | 287 | 0.0 | 3.2 | 0.00 | 0.00 | 0.00 | 81 | 997.1 |
| 20260506111559 | 26 | 312 | 0.0 | 0.0 | 0.00 | 0.00 | 0.00 | 80 | 996.9 |
| 20260506111101 | 26 | 292 | 0.0 | 0.0 | 0.00 | 0.00 | 0.00 | 81 | 996.8 |
| 20260506110559 | 26 | 292 | 0.0 | 0.0 | 0.00 | 0.00 | 0.00 | 81 | 996.9 |
| 20260506110100 | 26 | 292 | 0.0 | 0.0 | 0.00 | 0.00 | 0.00 | 81 | 996.7 |
| 20260506105559 | 26 | 317 | 0.0 | 0.0 | 0.00 | 0.00 | 0.00 | 81 | 996.6 |
| 20260506105104 | 26 | 305 | 0.0 | 4.8 | 0.00 | 0.00 | 0.00 | 81 | 996.4 |
| 20260506104607 | 26 | 294 | 0.0 | 4.8 | 0.00 | 0.00 | 0.00 | 81 | 996.5 |
| 20260506104101 | 26 | 283 | 1.6 | 4.8 | 0.00 | 0.00 | 0.00 | 81 | 996.4 |
| 20260506103600 | 26 | 275 | 0.0 | 4.8 | 0.00 | 0.00 | 0.00 | 81 | 996.4 |
| 20260506103100 | 26 | 309 | 0.0 | 3.2 | 0.00 | 0.00 | 0.00 | 81 | 996.5 |
| 20260506102601 | 26 | 284 | 1.6 | 3.2 | 0.00 | 0.00 | 0.00 | 81 | 996.4 |
| 20260506102100 | 26 | 300 | 0.0 | 3.2 | 0.00 | 0.00 | 0.00 | 81 | 996.4 |
| 20260506101600 | 26 | 295 | 1.6 | 3.2 | 0.00 | 0.00 | 0.00 | 80 | 996.4 |
| 20260506101100 | 26 | 283 | 1.6 | 3.2 | 0.00 | 0.00 | 0.00 | 80 | 996.5 |
| 20260506100602 | 26 | 275 | 0.0 | 3.2 | 0.00 | 0.00 | 0.00 | 80 | 996.6 |
| 20260506100114 | 26 | 301 | 0.0 | 3.2 | 0.00 | 0.00 | 0.00 | 80 | 996.6 |
| 20260506100002 | 26 | 296 | 0.0 | 3.2 | 0.00 | 0.00 | 0.00 | 80 | 996.6 |
| 20260506095603 | 26 | 302 | 0.0 | 3.2 | 0.00 | 0.00 | 0.00 | 80 | 996.6 |
| 20260506095101 | 26 | 294 | 0.0 | 3.2 | 0.00 | 0.00 | 0.00 | 80 | 996.7 |
| 20260506094602 | 26 | 281 | 0.0 | 3.2 | 0.00 | 0.00 | 0.00 | 80 | 996.7 |
| 20260506094059 | 26 | 302 | 0.0 | 0.0 | 0.00 | 0.00 | 0.00 | 81 | 996.8 |
| 20260506093600 | 26 | 302 | 0.0 | 0.0 | 0.00 | 0.00 | 0.00 | 81 | 996.8 |
| 20260506093100 | 26 | 304 | 0.0 | 0.0 | 0.00 | 0.00 | 0.00 | 82 | 996.8 |
| 20260506092559 | 26 | 300 | 0.0 | 0.0 | 0.00 | 0.00 | 0.00 | 82 | 996.7 |
| 20260506092059 | 26 | 294 | 0.0 | 3.2 | 0.00 | 0.00 | 0.00 | 82 | 996.8 |
| 20260506091600 | 26 | 292 | 0.0 | 3.2 | 0.00 | 0.00 | 0.00 | 83 | 996.9 |
| 20260506091059 | 26 | 286 | 1.6 | 3.2 | 0.00 | 0.00 | 0.00 | 83 | 996.9 |
| 20260506090558 | 26 | 294 | 0.0 | 3.2 | 0.00 | 0.00 | 0.00 | 83 | 996.9 |
| 20260506090100 | 26 | 291 | 0.0 | 3.2 | 0.00 | 0.00 | 0.00 | 83 | 997.0 |
| 20260506085558 | 26 | 304 | 0.0 | 4.8 | 0.00 | 0.00 | 0.00 | 83 | 997.1 |
| 20260506085100 | 26 | 294 | 1.6 | 4.8 | 0.00 | 0.00 | 0.00 | 83 | 997.1 |
| 20260506084604 | 26 | 306 | 0.0 | 0.0 | 0.00 | 0.00 | 0.00 | 83 | 997.2 |
| 20260506084100 | 26 | 290 | 0.0 | 0.0 | 0.00 | 0.00 | 0.00 | 83 | 997.3 |
| 20260506083559 | 26 | 284 | 0.0 | 0.0 | 0.00 | 0.00 | 0.00 | 83 | 997.3 |
| 20260506083101 | 26 | 293 | 0.0 | 0.0 | 0.00 | 0.00 | 0.00 | 83 | 997.3 |
| 20260506082559 | 26 | 293 | 0.0 | 3.2 | 0.00 | 0.00 | 0.00 | 83 | 997.4 |
| 20260506082058 | 26 | 299 | 0.0 | 3.2 | 0.00 | 0.00 | 0.00 | 83 | 997.4 |
| 20260506081559 | 26 | 307 | 0.0 | 3.2 | 0.00 | 0.00 | 0.00 | 83 | 997.5 |
| 20260506081059 | 26 | 265 | 1.6 | 3.2 | 0.00 | 0.00 | 0.00 | 83 | 997.5 |
| 20260506080600 | 27 | 275 | 0.0 | 3.2 | 0.00 | 0.00 | 0.00 | 83 | 997.6 |
| 20260506073059 | 27 | 248 | 0.0 | 6.4 | 0.00 | 0.00 | 0.00 | 84 | 997.8 |
| 20260506072559 | 27 | 273 | 1.6 | 9.7 | 0.00 | 0.00 | 0.00 | 83 | 997.8 |
| 20260506072058 | 27 | 292 | 3.2 | 11.3 | 0.00 | 0.00 | 0.00 | 83 | 997.9 |
| 20260506071601 | 27 | 259 | 3.2 | 11.3 | 0.00 | 0.00 | 0.00 | 84 | 997.9 |
| 20260506071102 | 27 | 313 | 0.0 | 9.7 | 0.00 | 0.00 | 0.00 | 84 | 998.0 |
| 20260506070602 | 27 | 311 | 1.6 | 9.7 | 0.00 | 0.00 | 0.00 | 84 | 998.0 |
| 20260506062502 | 27 | 213 | 6.4 | 11.3 | 0.00 | 0.00 | 0.00 | 84 | 998.4 |
| 20260506062001 | 27 | 290 | 4.8 | 11.3 | 0.00 | 0.00 | 0.00 | 84 | 998.5 |
| 20260506061501 | 27 | 286 | 3.2 | 12.9 | 0.00 | 0.00 | 0.00 | 84 | 998.6 |
| 20260506061002 | 27 | 265 | 3.2 | 12.9 | 0.00 | 0.00 | 0.00 | 83 | 998.5 |
| 20260506060501 | 27 | 262 | 3.2 | 12.9 | 0.00 | 0.00 | 0.00 | 83 | 998.5 |
| 20260506051003 | 27 | 284 | 0.0 | 4.8 | 0.00 | 0.00 | 0.00 | 79 | 998.3 |
| 20260506050501 | 27 | 105 | 0.0 | 6.4 | 0.00 | 0.00 | 0.00 | 80 | 998.2 |
| 20260506045002 | 27 | 273 | 4.8 | 11.3 | 0.00 | 0.00 | 0.00 | 80 | 998.0 |
| 20260506044501 | 27 | 201 | 0.0 | 12.9 | 0.00 | 0.00 | 0.00 | 79 | 997.9 |
| 20260506044000 | 28 | 296 | 3.2 | 12.9 | 0.00 | 0.00 | 0.00 | 79 | 997.8 |
| 20260506043603 | 28 | 171 | 0.0 | 6.4 | 0.00 | 0.00 | 0.00 | 79 | 997.9 |
| 20260506043002 | 28 | 327 | 0.0 | 14.5 | 0.00 | 0.00 | 0.00 | 80 | 997.9 |
| 20260506042503 | 27 | 290 | 3.2 | 14.5 | 0.00 | 0.00 | 0.00 | 80 | 997.9 |
| 20260506042000 | 28 | 87 | 4.8 | 12.9 | 0.00 | 0.00 | 0.00 | 80 | 997.7 |
| 20260506041500 | 27 | 298 | 0.0 | 17.7 | 0.00 | 0.00 | 0.00 | 80 | 997.6 |
| 20260506041001 | 27 | 308 | 3.2 | 17.7 | 0.00 | 0.00 | 0.00 | 80 | 997.5 |
| 20260506040501 | 27 | 306 | 4.8 | 12.9 | 0.00 | 0.00 | 0.00 | 80 | 997.5 |
| 20260506040001 | 27 | 340 | 4.8 | 14.5 | 0.00 | 0.00 | 0.00 | 80 | 997.4 |
| 20260506035602 | 27 | 280 | 1.6 | 14.5 | 0.00 | 0.00 | 0.00 | 80 | 997.4 |
| 20260506035100 | 28 | 250 | 4.8 | 14.5 | 0.00 | 0.00 | 0.00 | 80 | 997.3 |
| 20260506034604 | 28 | 226 | 1.6 | 9.7 | 0.00 | 0.00 | 0.00 | 81 | 997.2 |
| 20260506034059 | 27 | 309 | 1.6 | 12.9 | 0.00 | 0.00 | 0.00 | 81 | 997.3 |
| 20260506033600 | 28 | 232 | 3.2 | 12.9 | 0.00 | 0.00 | 0.00 | 81 | 997.2 |
| 20260506033101 | 28 | 214 | 3.2 | 12.9 | 0.00 | 0.00 | 0.00 | 81 | 997.2 |
| 20260506032559 | 28 | 290 | 3.2 | 12.9 | 0.00 | 0.00 | 0.00 | 81 | 997.1 |
| 20260506032100 | 28 | 331 | 6.4 | 14.5 | 0.00 | 0.00 | 0.00 | 81 | 997.0 |
| 20260506031604 | 28 | 284 | 4.8 | 17.7 | 0.00 | 0.00 | 0.00 | 81 | 997.0 |
| 20260506031102 | 28 | 327 | 6.4 | 17.7 | 0.00 | 0.00 | 0.00 | 81 | 997.0 |
| 20260506030600 | 28 | 280 | 6.4 | 17.7 | 0.00 | 0.00 | 0.00 | 81 | 997.0 |
| 20260506030121 | 28 | 272 | 8.0 | 17.7 | 0.00 | 0.00 | 0.00 | 81 | 996.7 |
| 20260506025601 | 28 | 195 | 4.8 | 19.3 | 0.00 | 0.00 | 0.00 | 81 | 996.8 |
| 20260506025102 | 28 | 317 | 4.8 | 17.7 | 0.00 | 0.00 | 0.00 | 80 | 996.9 |
| 20260506024600 | 28 | 319 | 8.0 | 19.3 | 0.00 | 0.00 | 0.00 | 80 | 996.8 |